Weather History for Marion, OH

Change the Weather History Date:

Monday, November 14, 2011

  Actual Average (KDLZ) Record (KDLZ)
Temperature  
Mean Temperature 62 °F -  
Max Temperature 68 °F 49 °F 71 °F (1989)
Min Temperature 55 °F 30 °F 12 °F (1986)
Degree Days  
Heating Degree Days 4    
Growing Degree Days 12 (Base 50)    
Moisture  
Dew Point 55 °F    
Average Humidity 90    
Maximum Humidity 100    
Minimum Humidity 70    
Precipitation  
Precipitation 1.67 in - - ()
Sea Level Pressure  
Sea Level Pressure 29.71 in    
Wind  
Wind Speed 12 mph (SW)    
Max Wind Speed 26 mph    
Max Gust Speed 38 mph    
Visibility 6 miles    
Events Rain    
Averages and records for this station are not official NWS values.
T = Trace of Precipitation, MM = Missing Value Source: NWS Daily Summary

Daily Weather History Graph

Daily Weather History Graph

Search for Another Location

Airport:

Trip Planner

Search our weather history database for the weather conditions in past years. The results will help you decide how hot, cold, wet, or windy it might be!

Date:

Astronomy

Nov. 14, 2011 Rise Set
Actual Time 7:17 AM EST 5:15 PM EST
Civil Twilight 6:48 AM EST 5:44 PM EST
Nautical Twilight 6:15 AM EST 6:17 PM EST
Astronomical Twilight 5:42 AM EST 6:49 PM EST
Moon 8:20 PM EST (11/14) 10:35 AM EST (11/14)
Length of Visible Light 10h 56m
Length of Day
9h 58m
Waning Gibbous, 87% of the Moon is Illuminated
Nov 14
Waning Gibbous
Nov 18
Last Quarter
Nov 25
New
Dec 2
First Quarter
Dec 10
Full

Hourly Weather History & Observations

Time (EST) Temp. Dew Point Humidity Pressure Visibility Wind Dir Wind Speed Gust Speed Precip Events Conditions
12:14 AM 57.2 °F 53.6 °F 88% 29.76 in 1.8 mi West 11.5 mph 21.9 mph 0.17 in Rain Heavy Rain
12:18 AM 57.2 °F 53.6 °F 88% 29.76 in 2.0 mi SW 12.7 mph 20.7 mph 0.19 in Rain Heavy Rain
12:37 AM 57.2 °F 53.6 °F 88% 29.75 in 10.0 mi SSW 12.7 mph - 0.28 in Rain Light Rain
12:53 AM 55.9 °F 54.0 °F 93% 29.74 in 10.0 mi SSW 9.2 mph - 0.28 in   Overcast
1:53 AM 57.0 °F 53.1 °F 87% 29.74 in 10.0 mi SSW 12.7 mph - N/A   Overcast
2:53 AM 57.0 °F 54.0 °F 89% 29.74 in 10.0 mi SSW 12.7 mph - N/A   Overcast
3:53 AM 55.9 °F 55.0 °F 97% 29.73 in 9.0 mi South 12.7 mph - 0.03 in Rain Light Rain
5:01 AM 57.2 °F 55.4 °F 94% 29.75 in 1.5 mi SW 8.1 mph 18.4 mph 0.08 in Rain Heavy Rain
5:04 AM 57.2 °F 55.4 °F 94% 29.74 in 2.0 mi South 10.4 mph - 0.09 in Rain Rain
5:07 AM 55.4 °F 55.4 °F 100% 29.74 in 3.0 mi South 13.8 mph - 0.09 in Rain Light Rain
5:14 AM 55.4 °F 55.4 °F 100% 29.74 in 7.0 mi South 8.1 mph - 0.09 in Rain Light Rain
5:20 AM 55.4 °F 53.6 °F 94% 29.77 in 2.5 mi WNW 11.5 mph 16.1 mph 0.18 in Rain Heavy Rain
5:31 AM 55.4 °F 55.4 °F 100% 29.77 in 4.0 mi SW 6.9 mph - 0.20 in Rain Light Rain
5:53 AM 55.9 °F 54.0 °F 93% 29.77 in 4.0 mi SW 13.8 mph - 0.27 in Rain Rain
6:53 AM 55.9 °F 54.0 °F 93% 29.75 in 8.0 mi SSW 10.4 mph - 0.13 in Rain Light Rain
7:53 AM 55.9 °F 54.0 °F 93% 29.75 in 8.0 mi South 11.5 mph - 0.01 in   Overcast
8:53 AM 57.0 °F 55.0 °F 93% 29.74 in 10.0 mi South 12.7 mph - N/A   Overcast
9:22 AM 57.2 °F 55.4 °F 94% 29.74 in 1.8 mi Calm Calm - 0.06 in Rain Heavy Rain
9:30 AM 57.2 °F 55.4 °F 94% 29.74 in 1.2 mi North 6.9 mph - 0.09 in Rain Rain
9:34 AM 57.2 °F 55.4 °F 94% 29.74 in 2.5 mi North 9.2 mph - 0.09 in Rain Light Rain
9:49 AM 57.2 °F 55.4 °F 94% 29.75 in 1.0 mi NW 6.9 mph - 0.23 in Rain Heavy Rain
9:53 AM 57.0 °F 55.9 °F 96% 29.75 in 0.8 mi West 4.6 mph - 0.27 in Rain Heavy Rain
9:59 AM 57.2 °F 57.2 °F 100% 29.76 in 1.0 mi NW 11.5 mph 17.3 mph 0.03 in Rain Rain
10:05 AM 57.2 °F 55.4 °F 94% 29.75 in 1.2 mi Variable 5.8 mph 17.3 mph 0.08 in Rain Heavy Rain
10:14 AM 57.2 °F 55.4 °F 94% 29.74 in 3.0 mi WNW 5.8 mph - 0.09 in Rain Light Rain
10:31 AM 57.2 °F 55.4 °F 94% 29.74 in 10.0 mi Variable 5.8 mph - 0.09 in   Overcast
10:53 AM 59.0 °F 57.0 °F 93% 29.73 in 10.0 mi South 8.1 mph - 0.09 in   Overcast
11:53 AM 63.0 °F 57.9 °F 84% 29.70 in 10.0 mi SSW 15.0 mph - N/A   Mostly Cloudy
12:53 PM 64.0 °F 59.0 °F 84% 29.64 in 10.0 mi SSW 23.0 mph 32.2 mph N/A   Overcast
1:26 PM 64.4 °F 57.2 °F 77% 29.63 in 10.0 mi SSW 21.9 mph 31.1 mph N/A   Overcast
1:42 PM 64.4 °F 57.2 °F 77% 29.62 in 10.0 mi SSW 18.4 mph 33.4 mph N/A   Overcast
1:53 PM 64.9 °F 59.0 °F 81% 29.61 in 10.0 mi SSW 24.2 mph 31.1 mph N/A   Overcast
2:53 PM 66.9 °F 57.9 °F 73% 29.58 in 10.0 mi SSW 23.0 mph 38.0 mph N/A   Overcast
3:53 PM 68.0 °F 57.9 °F 70% 29.60 in 10.0 mi SW 24.2 mph 36.8 mph N/A   Overcast
4:53 PM 66.9 °F 57.9 °F 73% 29.59 in 10.0 mi SSW 19.6 mph 32.2 mph N/A   Partly Cloudy
5:53 PM 66.0 °F 57.9 °F 75% 29.60 in 10.0 mi SW 18.4 mph - N/A   Scattered Clouds
6:53 PM 57.0 °F 54.0 °F 89% 29.67 in 7.0 mi WNW 26.5 mph 34.5 mph 0.00 in Rain Light Rain
6:58 PM 57.2 °F 53.6 °F 88% 29.67 in 8.0 mi WNW 13.8 mph 34.5 mph 0.00 in Rain Light Rain
7:09 PM 55.4 °F 53.6 °F 94% 29.69 in 2.5 mi West 19.6 mph 29.9 mph 0.10 in Rain Heavy Rain
7:24 PM 55.4 °F 53.6 °F 94% 29.70 in 2.5 mi West 16.1 mph 24.2 mph 0.28 in Rain Heavy Rain
7:43 PM 55.4 °F 53.6 °F 94% 29.68 in 4.0 mi West 10.4 mph - 0.42 in Rain Rain
7:53 PM 55.9 °F 54.0 °F 93% 29.68 in 5.0 mi WSW 6.9 mph - 0.44 in Rain Light Rain
8:53 PM 55.9 °F 54.0 °F 93% 29.66 in 7.0 mi SW 4.6 mph - 0.13 in Rain Light Rain
9:53 PM 55.9 °F 54.0 °F 93% 29.72 in 10.0 mi SW 8.1 mph - 0.02 in   Overcast
10:07 PM 55.4 °F 53.6 °F 94% 29.72 in 10.0 mi SW 8.1 mph - N/A   Overcast
10:24 PM 55.4 °F 53.6 °F 94% 29.72 in 10.0 mi SW 9.2 mph - N/A   Overcast
10:53 PM 55.9 °F 54.0 °F 93% 29.73 in 10.0 mi SW 5.8 mph - N/A   Overcast
11:53 PM 55.9 °F 54.0 °F 93% 29.75 in 10.0 mi SW 5.8 mph - N/A   Overcast